Location: Asheville, NC
(35.6000°N, 82.5500°W)
Time: 18:57:12
(UTC-04:00)

AO-7 - Pass Details

Date: 09 January 2018
Orbit: 1439 x 1459 km, 101.7° (Epoch: 23 April)

Event Time Altitude Azimuth Distance (km) Brightness Sun altitude
Rises 05:57:44 0° 3° (N) 4,571 ? -20.4°
Reaches altitude 10° 06:01:17 10° 349° (N) 3,588 ? -19.7°
Enters shadow 06:06:23 22° 311° (NW) 2,785 ? -18.7°
